INMARSAT GX5

Last updated on Sun Jun 21 2026 00:03:08 GMT+0000 (Coordinated Universal Time)

1 44801U 19080B 26171.25162351 .00000070 00000+0 00000+0 0 9992 2 44801 0.0356 7.3336 0002129 92.5916 270.1427 1.00269243 6816
UTC large
Height (km)
Speed (km/s)
/
Latitude / Longitude
Inclination (degrees)
Orbital Period (minutes)
Azimuth
Elevation
Range (km)
Doppler Factor

Next 0 passes for location: London (51.5072 / 0.1276)

No passes found over London.
INMARSAT GX5